Flag for U.S.A. Weather past 2 weeks in Pullman, Washington, U.S.A.

Now
61 °F

Light rain. Overcast.


Feels Like: 61 °F
Forecast: 55 / 80 °F
Wind: 8 mph from North

Location: Pullman / Moscow Regional Airport

Current Time: Aug 29, 2015 at 4:40:45 PM

Latest Report: Aug 29, 2015 at 3:53 PM


Visibility: 3 mi

Pressure: 29.85 "Hg (27.43 "Hg at 715m altitude)

Humidity: 72%

Dew point: 52 °F

Location of PullmanLocation

Historic Weather in Pullman — Graph

°F

Pullman temperature yesterday

Maximum temperature yesterday: 80 °F (at 3:53 PM)
Minimum temperature yesterday: 63 °F (at 12:53 AM)
Average temperature yesterday: 72 °F

Past Weeks' High & Low Weather Summary

 TemperatureHumidityPressure
High90 °F (Aug 26, 2:53 PM)72% (Aug 29, 3:53 PM)30.22 "Hg (Aug 29, 3:53 PM)
Low41 °F (Aug 22, 6:03 AM)12% (Aug 20, 5:53 PM)29.63 "Hg (Aug 29, 4:53 AM)
Average67 °F38%29.97 "Hg
* Reported Aug 14 3:53 PM — Aug 29 3:53 PM, Pullman, Weather by CustomWeather, © 2015

Note: Actual official high and low records may vary slightly from our data, if they occured in-between our weather recording intervals... More about our weather records

Advertising

Pullman weather history for previous 24 hours

 ConditionsComfort  
Time TempWeatherWind HumidityBarometerVisibility
3:53 PM
Sat, Aug 29
61 °FLight rain. Overcast.8 mph72%29.85 "Hg3 mi
3:03 PM65 °FLight rain. Overcast.12 mph63%29.89 "Hg8 mi
2:53 PM64 °FRain. Mostly cloudy.9 mph68%29.84 "Hg2 mi
1:53 PM70 °FPassing clouds.16 mph46%29.82 "Hg7 mi
12:53 PM75 °FMostly cloudy.16 mph39%29.80 "Hg3 mi
11:53 AM72 °FScattered clouds.15 mph41%29.78 "Hg5 mi
10:53 AM76 °FPartly sunny.30 mph31%29.72 "Hg1 mi
9:53 AM75 °FSunny.8 mph32%29.66 "Hg1 mi
8:53 AM74 °FSunny.9 mph32%29.63 "Hg1 mi
7:53 AM72 °FDense fog.12 mph35%29.64 "Hg1 mi
6:53 AM71 °FDense fog.15 mph38%29.64 "Hg1 mi
5:53 AM71 °FDense fog.15 mph36%29.64 "Hg1 mi
4:53 AM72 °FPassing clouds.20 mph37%29.63 "Hg1 mi
3:53 AM73 °FOvercast.17 mph34%29.64 "Hg2 mi
3:01 AM73 °FOvercast.13 mph33%29.72 "Hg3 mi
1:53 AM73 °FClear.12 mph33%29.69 "Hg2 mi
12:53 AM73 °FPassing clouds.12 mph34%29.77 "Hg4 mi
11:53 PM
Fri, Aug 28
73 °FClear.10 mph34%29.79 "Hg4 mi
10:53 PM73 °FHaze.14 mph36%29.80 "Hg5 mi
9:53 PM73 °FClear.14 mph36%29.84 "Hg7 mi
8:53 PM73 °FClear.13 mph36%29.86 "Hg7 mi
7:53 PM75 °FSunny.10 mph32%29.87 "Hg7 mi
6:53 PM77 °FSunny.16 mph30%29.86 "Hg5 mi
5:53 PM78 °FSunny.14 mph28%29.88 "Hg5 mi
4:53 PM80 °FSunny.8 mph26%29.93 "Hg9 mi
Weather by CustomWeather, © 2015

See weather overviewHow to use our weather pages